Location: Castellare
(42.4669°N, 9.4728°E)
Time: 16:37:25
(UTC+00:00)

Cosmos 1603 - Pass Details

Date: 17 February 2020
Orbit: 832 x 858 km, 71.0° (Epoch: 06 April)

Event Time Altitude Azimuth Distance (km) Brightness Sun altitude
Rises 04:49:40 0° 206° (SSW) 3,413 6.6 -16.7°
Reaches altitude 10° 04:52:07 10° 207° (SSW) 2,478 5.9 -16.3°
Maximum altitude 04:57:49 80° 294° (WNW) 868 3.6 -15.2°
Drops below altitude 10° 05:03:32 10° 22° (NNE) 2,478 6.4 -14.2°
Sets 05:06:00 0° 24° (NNE) 3,413 7.1 -13.7°
